Probability
0 0 0 0 0 0 0 0 0 0 0 0 1 3 5 6 7 6 4 4 7 8 6 4 5 10 13 12 10 8 7 6 5 4 6 8 9 8 7 5 3 2 3 4
0 0 0 0 0 0 0 0 0 0 0 0 2 3 5 7 8 6 5 4 5 6 6 5 4 7 11 11 10 9 9 8 7 6 6 8 9 8 7 6 6 6 7 8
0 0 0 0 0 1 2 2 1 0 0 0 1 2 4 6 7 7 6 5 5 6 7 6 5 6 8 10 11 10 10 9 8 6 6 7 8 7 7 7 9 10 10 10
0 0 0 1 1 3 4 4 3 1 1 1 1 1 1 4 6 7 7 7 7 7 8 7 6 6 8 10 10 10 10 9 8 6 5 5 6 6 7 8 9 10 10 9
0 0 0 1 3 4 4 4 3 3 2 2 2 1 0 2 5 7 7 7 8 9 9 8 7 7 9 9 10 10 9 9 7 5 5 5 5 6 7 8 9 9 9 8
0 0 0 1 2 3 3 3 3 3 3 3 2 1 0 1 4 6 6 7 8 10 11 11 9 9 9 10 10 10 9 8 6 5 5 4 4 5 7 8 7 7 8 9
0 0 0 0 2 3 3 3 3 3 3 2 1 1 0 1 2 4 5 7 7 9 13 14 13 11 10 9 9 9 9 8 6 5 4 4 4 4 6 6 6 7 8 9
0 0 0 0 1 2 3 3 3 3 2 1 0 0 0 1 3 3 5 7 8 9 12 15 15 13 10 9 8 8 8 8 7 5 4 4 5 4 4 4 6 8 8 7
0 0 0 0 1 1 2 3 4 4 2 0 0 0 1 4 4 3 4 6 8 8 10 14 15 13 11 9 8 9 9 9 8 6 6 6 6 4 3 4 6 7 6 5
0 0 0 0 0 1 2 4 5 5 2 1 1 1 4 6 6 3 2 4 6 7 9 12 14 13 11 9 10 11 10 9 7 7 6 6 6 5 4 4 5 5 3 3
0 0 0 0 0 1 2 4 6 5 3 2 2 3 5 7 6 4 2 2 4 6 9 11 13 12 10 9 10 11 10 8 7 6 6 6 6 4 3 3 3 2 1 1
0 0 0 0 0 0 2 4 6 6 4 3 3 3 4 5 5 5 3 2 3 6 8 10 11 10 8 8 9 9 8 8 7 8 7 7 6 4 2 2 1 0 0 0
0 0 0 0 0 0 1 4 6 6 5 3 3 3 3 3 4 4 3 3 4 6 7 9 9 8 7 7 8 8 8 8 9 10 10 9 7 5 3 2 1 0 0 0
0 0 0 0 0 0 2 5 7 7 5 4 3 3 2 2 2 2 3 3 4 6 7 8 8 8 7 8 8 8 8 8 9 10 11 10 8 5 4 3 2 0 0 0
0 0 0 0 0 1 3 7 8 6 4 3 3 2 2 2 2 2 2 3 5 7 7 8 9 9 8 8 8 8 7 7 7 8 8 8 7 6 5 4 2 1 0 0
0 0 0 0 1 2 4 7 6 5 4 4 4 3 3 4 3 3 3 4 6 7 7 8 8 8 7 7 7 7 6 5 5 5 5 5 5 6 6 4 2 2 1 0
1 1 0 1 2 3 3 4 4 4 5 5 5 5 5 6 5 5 6 6 6 7 7 6 6 6 6 6 6 6 6 5 5 4 3 3 4 5 5 3 2 3 2 1
0 1 1 1 2 2 1 1 2 4 5 6 7 7 6 5 5 5 6 6 6 6 5 5 5 5 6 6 5 5 6 6 5 4 3 2 3 3 3 2 2 3 2 1
1 1 2 2 1 1 0 0 2 4 6 7 8 8 7 5 4 4 4 4 4 4 4 4 5 5 6 6 5 5 5 5 4 3 3 2 1 1 1 2 2 3 2 1
2 3 2 1 0 0 0 0 2 4 6 6 7 7 6 5 4 3 3 3 3 3 3 3 4 5 5 4 3 3 4 4 3 2 3 2 1 1 2 2 3 2 1 0
3 3 2 1 0 0 1 1 2 4 4 4 4 4 4 4 3 3 3 3 3 3 3 3 3 3 3 2 1 1 2 2 2 2 2 2 2 2 2 3 3 2 1 0
2 2 1 0 0 0 1 2 3 3 3 3 2 1 1 2 2 2 2 2 2 3 3 3 2 1 1 0 0 0 1 1 1 1 1 1 1 1 1 1 2 1 0 0
1 1 0 0 0 0 1 2 2 2 2 2 1 0 0 1 1 1 1 1 1 1 2 2 1 0 0 0 0 0 0 0 0 0 0 0 0 0 0 0 0 0 0 0
0 0 0 0 0 0 0 1 1 1 1 1 0 0 0 0 0 0 0 0 0 0 1 1 0 0 0 0 0 0 0 0 0 0 0 0 0 0 0 0 0 0 0 0
0 0 0 0 0 0 0 0 0 0 0 0 0 0 0 0 0 0 0 0 0 0 0 0 0 0 0 0 0 0 0 0 0 0 0 0 0 0 0 0 0 0 0 0
0 0 0 0 0 0 0 0 0 0 0 0 0 0 0 0 0 0 0 0 0 0 0 0 0 0 0 0 0 0 0 0 0 0 0 0 0 0 0 0 0 0 0 0
0 0 0 0 0 0 0 0 0 0 0 0 0 0 0 0 0 0 0 0 0 0 0 0 0 0 0 0 0 0 0 0 0 0 0 0 0 0 0 0 0 0 0 0
Wind_Speed
3 3 2 2 2 3 5 7 8 7 7 7 6 5 4 4 3 3 3 3 4 4 3 3 3 3 3 4 4 4 4 4 4 3 2 2 3 3 3 3 3 2 2 2
1 1 1 1 2 3 3 4 4 3 5 6 3 2 3 3 4 4 5 5 5 4 4 4 4 4 3 3 3 4 4 4 3 3 2 3 3 2 2 3 3 2 3 3
2 3 2 3 4 4 3 2 5 6 6 2 1 4 6 5 5 6 6 5 5 5 5 5 5 5 5 4 3 3 4 3 3 3 3 3 3 2 3 3 3 3 3 3
2 1 4 8 2 3 3 2 2 3 3 3 4 4 4 4 6 6 5 5 5 5 5 4 4 4 4 4 4 4 4 3 3 3 3 2 2 3 3 2 3 3 4 4
4 3 5 5 2 3 3 3 2 3 2 1 1 2 2 3 5 6 6 5 5 6 5 5 5 4 4 4 4 4 4 4 3 3 3 3 3 3 3 2 3 3 3 3
4 4 7 7 3 2 4 4 3 3 2 1 3 1 5 4 4 4 3 3 3 4 4 4 4 5 5 4 4 4 5 4 4 3 4 4 4 3 2 3 3 3 3 3
4 4 7 6 3 3 4 7 3 3 4 4 5 6 5 2 2 3 3 3 3 4 5 5 5 5 5 4 5 5 4 3 3 3 4 4 3 2 2 2 3 3 4 3
4 3 7 3 2 5 7 3 2 3 4 4 4 4 3 2 2 2 2 3 4 4 4 3 5 6 5 5 5 3 3 3 3 3 3 3 2 2 2 2 2 3 3 3
7 7 5 2 3 3 2 2 2 2 3 3 3 4 3 3 2 2 3 3 4 5 4 3 4 6 6 6 4 3 3 3 3 3 3 2 3 3 2 2 2 2 2 3
1 4 4 3 2 2 1 2 2 2 3 3 3 3 3 3 2 2 2 3 3 4 4 4 4 5 5 4 4 4 4 3 3 2 2 2 2 2 3 3 3 3 3 3
2 4 4 4 3 2 2 2 1 1 1 2 2 2 3 3 3 3 3 3 4 5 6 6 5 5 4 4 4 4 3 3 2 2 2 2 2 3 4 4 4 5 4 4
6 6 4 5 4 2 2 3 3 2 2 2 2 3 2 2 3 3 3 3 4 5 5 5 5 5 4 4 5 4 3 3 3 2 2 2 2 2 3 5 6 7 7 6
6 4 4 4 4 3 3 4 3 3 3 3 2 2 2 2 2 2 3 3 5 5 5 4 4 4 4 4 4 5 4 4 3 3 3 3 3 3 3 3 3 4 5 5
3 1 2 3 3 3 3 3 2 2 2 2 1 1 1 1 1 2 3 4 3 3 3 3 4 4 4 3 4 4 4 4 4 3 3 3 3 3 3 3 3 2 3 4
3 3 4 3 2 2 1 0 0 2 2 1 1 1 1 1 2 3 3 2 1 1 2 2 3 4 3 3 3 3 3 3 3 3 3 3 2 2 3 3 3 3 2 2
3 1 1 1 1 1 1 1 1 3 3 2 2 2 2 2 3 3 2 2 2 3 3 2 4 4 2 2 2 2 2 4 3 2 2 2 2 3 3 3 3 3 3 2
2 2 3 3 3 2 3 3 3 4 3 4 4 2 1 0 1 1 2 2 3 3 3 3 4 3 2 2 3 2 2 2 3 2 2 2 2 3 3 3 3 3 3 3
5 5 5 5 4 4 3 3 3 3 4 4 2 1 1 2 2 3 3 2 1 2 2 3 3 2 2 2 2 2 2 2 2 2 2 2 3 3 3 3 3 4 3 2
4 4 4 4 4 4 3 3 3 3 2 1 1 1 2 2 2 2 1 1 1 3 4 2 2 2 2 3 2 2 2 2 2 2 2 3 3 2 3 3 3 3 3 2
3 2 2 2 2 2 2 3 2 1 1 1 1 0 1 1 1 1 1 2 3 3 3 2 2 2 2 3 2 2 2 2 3 3 2 2 2 2 3 3 3 3 2 2
2 1 0 0 0 1 1 2 2 1 1 1 2 2 2 2 1 1 1 2 3 2 1 2 1 1 2 1 2 1 2 2 2 2 2 2 2 2 2 2 2 2 2 2
1 1 0 0 0 1 0 1 1 1 1 0 0 0 0 1 1 1 2 2 2 1 1 1 1 1 1 1 1 2 2 2 1 1 1 2 2 2 2 3 2 2 2 2
0 1 0 1 1 1 1 1 0 1 1 1 1 1 1 2 1 1 2 3 1 1 1 1 1 1 1 1 1 2 2 2 1 1 2 2 2 2 2 2 2 2 2 2
0 0 0 0 2 2 2 1 1 1 0 1 1 1 1 0 1 2 2 2 2 1 1 1 2 2 2 1 1 1 1 1 1 1 1 1 2 2 2 2 2 2 2 2
1 1 2 2 2 1 0 0 1 2 2 2 2 2 1 0 1 2 1 1 1 1 0 0 1 1 1 1 1 1 1 1 1 1 1 1 1 2 2 2 2 2 2 2
1 1 0 0 0 0 0 0 1 1 1 1 2 2 2 1 1 1 1 1 2 2 1 0 1 1 0 1 1 1 1 1 1 1 1 1 1 1 1 1 2 1 1 1
2 2 2 2 2 0 0 1 0 0 0 0 0 1 1 1 1 1 1 1 1 1 1 1 1 0 0 0 0 1 1 1 1 1 1 1 1 1 1 2 1 1 1 1
Wind_Direction
215 222 175 203 232 185 184 187 185 217 218 243 236 228 219 200 179 167 176 185 191 193 197 187 180 177 169 170 172 175 180 199 218 224 216 216 227 232 222 218 224 219 227 251
298 287 186 242 285 224 207 188 192 206 250 249 230 197 193 198 187 190 203 202 197 192 187 183 181 174 168 176 180 172 183 207 219 218 218 224 234 238 237 239 236 218 224 235
239 292 23 271 252 216 202 204 179 203 234 235 207 205 204 204 199 207 212 206 202 201 197 193 189 178 181 190 177 173 191 208 211 210 220 234 235 233 242 242 240 237 235 231
153 103 226 241 241 185 175 230 215 223 235 211 224 225 214 204 201 212 213 211 209 201 196 195 185 180 179 171 173 184 199 211 213 210 223 232 223 230 238 237 236 240 241 237
131 180 263 286 249 177 172 260 233 212 240 269 44 40 305 238 212 212 212 209 206 198 193 183 184 183 170 176 179 186 202 214 220 218 222 225 230 238 232 226 238 239 243 240
132 165 225 242 264 208 126 268 258 186 203 181 103 150 261 249 225 229 224 209 198 184 171 177 190 174 169 184 187 203 212 217 214 209 213 221 228 233 229 217 237 244 246 236
156 201 252 254 275 105 172 238 244 194 197 186 193 218 249 254 237 224 217 204 185 176 182 192 182 170 180 192 209 217 213 212 216 212 215 220 223 226 229 228 230 237 247 251
149 182 251 265 129 179 218 247 216 200 201 207 241 266 270 247 239 226 221 206 184 182 197 194 178 173 188 210 219 209 196 200 216 222 223 215 205 220 218 221 237 252 262 277
183 207 242 252 224 247 212 222 232 210 228 206 231 261 259 238 233 236 226 215 198 187 194 204 194 185 197 215 203 195 195 207 217 220 224 214 204 213 216 216 231 251 254 266
230 269 281 288 298 312 276 237 252 234 224 213 225 244 248 247 247 249 244 224 206 186 193 213 214 208 211 206 192 190 203 220 221 212 224 232 220 211 212 217 227 239 246 259
241 274 311 305 277 273 303 322 324 304 241 216 213 259 253 242 246 247 246 231 207 203 210 220 219 220 218 194 181 192 206 219 222 219 214 224 230 226 223 225 218 223 234 235
223 227 211 251 265 257 271 281 273 281 293 279 231 241 255 242 248 244 243 233 221 221 222 227 221 224 218 196 188 190 204 218 220 219 219 219 226 260 250 238 240 236 233 232
228 232 223 256 271 251 239 252 262 255 252 261 272 249 238 246 254 258 255 240 226 227 228 223 217 223 220 199 191 196 204 213 215 216 218 222 223 228 260 279 256 243 237 235
238 216 271 272 267 266 258 259 271 287 281 252 244 255 260 289 291 270 259 255 244 233 229 219 213 225 221 198 194 201 204 214 215 215 214 216 222 227 229 241 264 277 263 251
267 242 234 262 291 302 288 264 347 298 286 294 262 230 246 246 250 259 268 271 256 240 236 218 223 239 220 194 197 204 207 217 217 211 212 215 216 222 229 234 245 259 278 283
267 287 258 245 252 263 239 198 228 258 255 255 248 242 245 248 257 271 270 232 211 230 236 227 236 244 222 196 204 218 221 231 226 207 208 211 211 216 227 234 242 253 262 267
194 237 245 249 247 250 235 227 226 239 244 247 241 230 215 214 283 288 277 254 228 222 219 217 235 243 222 204 208 216 214 230 226 210 205 212 212 216 224 231 239 250 255 247
212 218 221 222 226 236 245 246 245 245 242 252 252 205 195 198 223 244 250 259 297 298 267 241 237 231 222 214 206 209 204 212 216 212 212 214 214 214 217 227 237 248 259 251
225 230 238 239 234 223 220 231 242 245 253 236 210 228 236 230 233 241 234 220 244 269 275 266 247 229 239 238 223 198 199 201 209 213 212 216 221 221 222 232 242 246 244 237
230 230 235 240 238 220 224 232 218 223 241 193 180 213 273 272 248 217 201 233 246 248 257 249 226 226 240 236 220 187 188 198 213 220 215 216 223 228 231 236 239 240 239 233
224 217 225 267 301 268 223 196 167 188 226 182 180 205 237 265 270 223 188 260 281 274 249 221 216 231 231 214 190 180 181 193 211 222 221 224 231 238 243 241 238 239 239 239
218 184 209 219 79 344 299 147 158 174 182 184 223 255 301 299 298 298 268 254 270 262 215 218 223 225 226 193 172 174 183 190 202 213 217 225 231 238 245 237 224 227 234 239
200 193 192 206 182 153 46 46 107 161 182 206 227 253 258 257 239 225 288 291 298 276 232 227 219 207 192 175 183 194 196 195 201 212 223 230 234 236 241 236 226 223 223 227
50 93 99 99 93 86 60 353 360 2 318 278 263 255 246 279 315 290 276 297 304 290 263 229 210 184 163 175 195 201 207 212 217 229 240 245 243 237 233 227 226 232 231 225
88 91 77 71 74 82 145 358 50 40 25 6 342 330 321 241 229 271 295 305 314 325 345 347 170 173 169 189 198 204 216 225 232 231 233 244 253 250 238 225 221 226 231 231
51 74 89 141 151 177 200 52 56 33 42 22 347 342 349 344 332 327 349 7 22 20 17 23 87 137 166 213 230 224 225 228 232 244 255 257 256 249 247 245 239 234 228 224
37 41 42 32 19 26 114 110 118 283 121 136 313 327 352 6 17 21 23 24 26 22 9 10 32 74 139 210 250 251 242 237 233 237 243 242 249 259 258 242 236 234 226 219